Weather reports worldwide

Advertisment
Albuquerque/Int., United States of America (72365): temperature & dewpoint: 13.10.2019 20:00:00 - 19.10.2019 20:00:00 (MDT)Albuquerque/Int., United States of America (72365): wind speed & gusts: 13.10.2019 20:00:00 - 19.10.2019 20:00:00 (MDT)Albuquerque/Int., United States of America (72365): wind direction: 13.10.2019 20:00:00 - 19.10.2019 20:00:00 (MDT)Albuquerque/Int., United States of America (72365): reduced air pressure: 13.10.2019 20:00:00 - 19.10.2019 20:00:00 (MDT)Albuquerque/Int., United States of America (72365): visibility: 13.10.2019 20:00:00 - 19.10.2019 20:00:00 (MDT)Albuquerque/Int., United States of America (72365): precipitation: 13.10.2019 20:00:00 - 19.10.2019 20:00:00 (MDT)
Date & Time tt [°C] td [°C] ff [km/h] ff [kn] fx [km/h] fx [kn] dd ppp [hPa] vv [km] rr [mm]
19.10.2019 20:00:00 16,1 -8,9 18 10 - - S 1008,5 16 -
19.10.2019 19:00:00 17,2 -10,6 13 7 - - S 1008,4 16 -
19.10.2019 18:00:00 18,9 -10,0 21 11 - - S 1008,3 16 0,0
19.10.2019 17:00:00 18,9 -11,1 15 8 - - S 1008,5 16 -
19.10.2019 16:00:00 18,9 -12,2 13 7 - - SSW 1008,8 16 -
19.10.2019 15:00:00 18,3 -11,7 16 9 - - SSW 1009,7 16 0,0
19.10.2019 14:00:00 17,8 -12,8 13 7 - - S 1010,5 16 -
19.10.2019 13:00:00 16,1 -13,3 5 3 - - SSW 1012,5 16 -
19.10.2019 12:00:00 14,4 -11,1 0 0 - - N 1013,6 16 0,0
19.10.2019 11:00:00 12,8 -8,9 8 4 - - WNW 1014,3 16 -
19.10.2019 10:00:00 10,0 -6,1 8 4 - - WNW 1015,1 16 -
19.10.2019 09:00:00 9,4 -8,3 0 0 - - N 1014,7 16 0,0
19.10.2019 08:00:00 6,1 -8,3 0 0 - - N 1014,2 16 -
19.10.2019 07:00:00 3,3 -8,3 0 0 - - N 1014,3 16 -
19.10.2019 06:00:00 3,9 -8,3 5 3 - - SE 1013,5 16 0,0
19.10.2019 05:00:00 6,1 -8,9 0 0 - - N 1012,1 16 -
19.10.2019 04:00:00 8,3 -9,4 9 5 - - NE 1010,9 16 -
19.10.2019 03:00:00 8,9 -10,6 13 7 - - NNW 1011,0 16 0,0
19.10.2019 02:00:00 10,0 -8,9 13 7 - - NNW 1010,6 16 -
19.10.2019 01:00:00 10,6 -8,9 16 9 - - NNW 1010,3 16 -
19.10.2019 00:00:00 12,2 -7,8 21 11 - - NNW 1009,4 16 0,0
18.10.2019 23:00:00 13,3 -7,2 22 12 - - NNW 1008,7 16 -
18.10.2019 22:00:00 13,9 -5,0 15 8 - - N 1008,8 16 -
18.10.2019 21:00:00 14,4 -2,2 11 6 - - N 1008,5 16 0,0
18.10.2019 20:00:00 16,1 -1,1 16 9 - - NW 1006,9 16 -
18.10.2019 19:00:00 17,2 -2,2 22 12 - - NW 1006,3 16 -
18.10.2019 18:00:00 18,3 -3,9 31 17 57 31 WNW 1005,0 16 0,0
18.10.2019 17:00:00 20,6 -2,2 37 20 70 38 NW 1003,9 16 -
18.10.2019 16:00:00 21,7 -6,1 35 19 - - W 1003,0 16 -
18.10.2019 15:00:00 19,4 1,7 22 12 - - SW 1002,7 16 0,0
18.10.2019 14:00:00 18,3 1,1 34 18 48 26 SSW 1003,7 16 -
18.10.2019 13:00:00 18,3 0,6 35 19 48 26 WSW 1004,6 16 -
18.10.2019 12:00:00 19,4 0,0 35 19 50 27 WNW 1004,9 16 0,0
18.10.2019 11:00:00 18,3 2,8 31 17 - - W 1006,0 16 -
18.10.2019 10:00:00 15,0 3,9 11 6 - - SW 1006,6 16 -
18.10.2019 09:00:00 12,2 3,9 0 0 - - N 1006,8 16 0,0
18.10.2019 08:00:00 11,1 3,3 0 0 - - N 1005,8 16 -
18.10.2019 07:00:00 10,6 4,4 9 5 - - SE 1005,1 16 -
18.10.2019 06:00:00 11,7 2,8 9 5 - - ESE 1004,3 16 0,0
18.10.2019 05:00:00 11,7 2,2 8 4 - - W 1003,9 16 -
18.10.2019 04:00:00 10,6 1,7 9 5 - - ESE 1003,8 16 -
18.10.2019 03:00:00 13,3 2,2 5 3 - - E 1003,7 16 0,0
18.10.2019 02:00:00 15,0 2,8 5 3 - - S 1003,6 16 -
18.10.2019 01:00:00 15,0 3,3 21 11 - - S 1003,8 16 -
18.10.2019 00:00:00 16,7 3,9 24 13 - - S 1004,2 16 0,0
17.10.2019 23:00:00 16,7 3,9 26 14 - - S 1004,5 16 -
17.10.2019 22:00:00 17,8 3,9 24 13 - - SSW 1004,6 16 -
17.10.2019 21:00:00 16,1 2,2 11 6 - - ESE 1005,4 16 0,0
17.10.2019 20:00:00 17,8 1,1 15 8 - - SSE 1005,5 16 -
17.10.2019 19:00:00 20,0 0,0 9 5 - - SSE 1005,3 16 -
17.10.2019 18:00:00 22,2 -0,6 11 6 - - S 1005,2 16 0,0
17.10.2019 17:00:00 22,2 -1,7 11 6 - - SSW 1006,5 16 -
17.10.2019 16:00:00 22,2 -2,2 15 8 - - SW 1007,1 16 -
17.10.2019 15:00:00 21,7 -2,2 16 9 - - SW 1007,6 16 0,0
17.10.2019 14:00:00 21,1 -4,4 16 9 - - S 1009,4 16 -
17.10.2019 13:00:00 19,4 -2,2 11 6 - - S 1011,4 16 -
17.10.2019 12:00:00 17,8 -2,2 16 9 - - SW 1012,1 16 0,0
17.10.2019 11:00:00 16,1 -2,2 9 5 - - SW 1013,9 16 -
17.10.2019 10:00:00 13,3 -3,9 0 0 - - N 1015,6 16 -
17.10.2019 09:00:00 11,1 -4,4 0 0 - - N 1015,8 16 0,0
17.10.2019 08:00:00 10,0 -2,2 5 3 - - - 1015,4 16 -
17.10.2019 07:00:00 9,4 -2,8 0 0 - - N 1014,5 16 -
17.10.2019 06:00:00 9,4 -3,3 5 3 - - E 1014,5 16 0,0
17.10.2019 05:00:00 8,9 -3,9 5 3 - - SE 1014,5 16 -
17.10.2019 04:00:00 9,4 -5,0 9 5 - - SE 1014,7 16 -
17.10.2019 03:00:00 11,1 -5,6 0 0 - - N 1014,5 16 0,0
17.10.2019 02:00:00 10,6 -6,1 0 0 - - N 1015,2 16 -
17.10.2019 01:00:00 10,6 -7,2 11 6 - - ESE 1015,4 16 -
17.10.2019 00:00:00 15,0 -8,3 8 4 - - SSW 1015,2 16 0,0
16.10.2019 23:00:00 13,3 -8,3 9 5 - - ESE 1016,2 16 -
16.10.2019 22:00:00 13,3 -8,3 13 7 - - ESE 1016,8 16 -
16.10.2019 21:00:00 14,4 -8,3 11 6 - - ESE 1017,0 16 0,0
16.10.2019 20:00:00 15,6 -8,3 15 8 - - ESE 1017,1 16 -
16.10.2019 19:00:00 20,0 -7,8 9 5 - - S 1016,2 16 -
16.10.2019 18:00:00 21,7 -8,3 13 7 - - S 1015,9 16 0,0
16.10.2019 17:00:00 22,8 -9,4 13 7 - - SSW 1016,4 16 -
16.10.2019 16:00:00 21,7 -8,9 0 0 - - N 1016,9 16 -
16.10.2019 15:00:00 21,7 -8,3 8 4 - - W 1017,6 16 0,0
16.10.2019 14:00:00 20,0 -7,2 0 0 - - N 1019,0 16 -
16.10.2019 13:00:00 17,8 -5,6 5 3 - - SW 1020,6 16 -
16.10.2019 12:00:00 15,6 -3,9 0 0 - - N 1021,8 16 0,0
16.10.2019 11:00:00 14,4 -3,9 5 3 - - NE 1022,9 16 -
16.10.2019 10:00:00 12,8 -4,4 0 0 - - N 1023,8 16 -
16.10.2019 09:00:00 10,0 -5,0 9 5 - - N 1023,6 16 0,0
16.10.2019 08:00:00 8,3 -5,0 11 6 - - N 1022,3 16 -
16.10.2019 07:00:00 8,3 -5,0 13 7 - - N 1022,0 16 -
16.10.2019 06:00:00 8,9 -5,0 11 6 - - N 1021,2 16 0,0
16.10.2019 05:00:00 9,4 -5,0 13 7 - - N 1020,9 16 -
16.10.2019 04:00:00 12,2 -3,9 28 15 - - ENE 1020,2 16 -
16.10.2019 03:00:00 12,8 -3,9 26 14 - - E 1020,1 16 0,0
16.10.2019 02:00:00 13,3 -6,7 15 8 - - NNE 1019,7 16 -
16.10.2019 01:00:00 14,4 -5,0 24 13 - - ENE 1018,9 16 -
16.10.2019 00:00:00 15,0 -7,2 22 12 - - E 1018,9 16 0,0
15.10.2019 23:00:00 12,8 -10,0 9 5 - - E 1019,3 16 -
15.10.2019 22:00:00 11,7 -9,4 0 0 - - N 1019,3 16 -
15.10.2019 21:00:00 13,9 -10,0 11 6 - - ESE 1018,9 16 0,0
15.10.2019 20:00:00 18,9 -12,8 9 5 - - NNW 1017,6 16 -
15.10.2019 19:00:00 20,6 -12,2 5 3 - - NNW 1016,6 16 -
15.10.2019 18:00:00 22,8 -12,8 9 5 - - WNW 1015,2 16 0,0
15.10.2019 17:00:00 23,9 -12,8 9 5 - - NNE 1014,7 16 -
15.10.2019 16:00:00 23,3 -12,2 11 6 - - WNW 1014,7 16 -
15.10.2019 15:00:00 22,2 -8,3 8 4 - - W 1014,9 16 0,0
15.10.2019 14:00:00 22,2 -7,2 9 5 - - - 1015,5 16 -
15.10.2019 13:00:00 21,1 -6,7 0 0 - - N 1016,1 16 -
15.10.2019 12:00:00 19,4 -4,4 8 4 - - WNW 1017,3 16 0,0
15.10.2019 11:00:00 16,7 -4,4 15 8 - - NNW 1017,9 16 -
15.10.2019 10:00:00 14,4 -3,9 15 8 - - N 1018,3 16 -
15.10.2019 09:00:00 11,7 -4,4 16 9 - - NNW 1018,0 16 0,0
15.10.2019 08:00:00 11,1 -3,3 9 5 - - NNE 1016,9 16 -
15.10.2019 07:00:00 10,0 -1,7 0 0 - - N 1016,1 16 -
15.10.2019 06:00:00 11,7 -3,3 11 6 - - NNE 1014,9 16 0,0
15.10.2019 05:00:00 12,2 -3,3 13 7 - - N 1014,2 16 -
15.10.2019 04:00:00 13,3 -2,8 15 8 - - N 1013,4 16 -
15.10.2019 03:00:00 13,9 -2,2 13 7 - - NNE 1013,4 16 0,0
15.10.2019 02:00:00 13,9 -0,6 0 0 - - N 1013,1 16 -
15.10.2019 01:00:00 15,0 -1,1 0 0 - - N 1012,5 16 -
15.10.2019 00:00:00 14,4 -1,1 8 4 - - SE 1012,8 16 0,0
14.10.2019 23:00:00 17,8 -0,6 11 6 - - N 1012,4 16 -
14.10.2019 22:00:00 18,3 -0,6 0 0 - - N 1012,3 16 -
14.10.2019 21:00:00 18,9 -0,6 0 0 - - N 1012,0 16 0,0
14.10.2019 20:00:00 21,1 -1,1 5 3 - - - 1011,6 16 -
14.10.2019 19:00:00 21,7 -2,2 9 5 - - WNW 1010,5 16 -
14.10.2019 18:00:00 22,8 -3,9 18 10 50 27 WNW 1010,3 16 0,0
14.10.2019 17:00:00 23,3 -2,8 11 6 - - W 1010,0 16 -
14.10.2019 16:00:00 23,9 -2,2 11 6 - - - 1010,0 16 -
14.10.2019 15:00:00 22,8 -2,2 11 6 - - W 1010,5 16 0,0
14.10.2019 14:00:00 21,7 -1,7 0 0 - - N 1011,6 16 -
14.10.2019 13:00:00 21,1 -1,7 8 4 - - - 1012,6 16 -
14.10.2019 12:00:00 20,0 0,0 5 3 - - SW 1013,6 16 0,0
14.10.2019 11:00:00 16,7 1,1 5 3 - - SW 1014,7 16 -
14.10.2019 10:00:00 15,0 0,6 8 4 - - W 1015,5 16 -
14.10.2019 09:00:00 12,8 1,7 5 3 - - SE 1015,6 16 0,0
14.10.2019 08:00:00 10,0 1,1 0 0 - - N 1015,3 16 -
14.10.2019 07:00:00 8,9 0,6 0 0 - - N 1014,9 16 -
14.10.2019 06:00:00 8,3 0,6 11 6 - - ESE 1013,9 16 0,0
14.10.2019 05:00:00 8,3 0,6 11 6 - - ESE 1013,2 16 -
14.10.2019 04:00:00 10,0 0,6 8 4 - - ESE 1012,8 16 -
14.10.2019 03:00:00 11,1 0,0 9 5 - - SE 1012,5 16 0,0
14.10.2019 02:00:00 12,8 -0,6 8 4 - - SE 1012,3 16 -
14.10.2019 01:00:00 12,8 -1,1 11 6 - - E 1012,5 16 -
14.10.2019 00:00:00 13,9 -3,3 0 0 - - N 1012,9 16 0,0
13.10.2019 23:00:00 15,0 -3,3 5 3 - - ESE 1012,9 16 -
13.10.2019 22:00:00 14,4 -2,8 11 6 - - E 1013,5 16 -
13.10.2019 21:00:00 16,1 -3,3 15 8 - - E 1012,9 16 0,0
13.10.2019 20:00:00 17,2 -4,4 11 6 - - E 1013,4 16 -

tt = temperature
td = dewpoint
ff = wind speed
fx = gusts
dd = wind direction
ppp = reduced air pressure
vv = visibility
rr = precipitation

Next stations